User: anonymous   Login
Location: Unspecified
(0.0000°N, 0.0000°E)
Time: 19:00:29
(UTC+01:00)
Language:

ARIANE DEB (SPELDA) - Orbit

View from above orbital plane
View from above orbital plane
View from above satellite
View from above satellite

Ground track
Ground track

The orbit data is extracted from the following two-line orbital elements,

1 27402U 02015D   16340.45817815 -.00000105  00000-0  25894-3 0  9994
2 27402   3.3350 204.9963 7075679 153.5722 274.6207  2.48467650129248
Epoch (UTC): 05 December 2016 10:59:46
Eccentricity: 0.7075679
inclination: 3.3350°
perigee height: 355 km
apogee height: 32940 km
right ascension of ascending node: 204.9963°
argument of perigee: 153.5722°
revolutions per day: 2.48467650
mean anomaly at epoch: 274.6207°
orbit number at epoch: 12924

The dashed part of the orbit path shows where the satellite is in the earth's shadow,  

DLR